FW0246 Weather Reports


time (UTC)temp
C
wind
direction
speed
KPH
gust
KPH
rain 1hr
cm
rain 24hr
cm
rain mn
cm
humidity
%
barometer
mb
20260506121803 12 274 1.6 6.4 0.00 1.09 0.20 88 1007.4
20260506120903 12 223 1.6 9.7 0.00 1.09 0.20 87 1007.3
20260506120003 12 99 1.6 6.4 0.00 1.09 0.20 88 1007.3
20260506115403 12 243 1.6 6.4 0.00 1.09 0.20 88 1007.2
20260506114503 12 263 1.6 9.7 0.00 1.09 0.20 89 1007.2
20260506113603 12 299 1.6 6.4 0.00 1.09 0.20 88 1007.2
20260506112703 11 220 1.6 6.4 0.00 1.09 0.20 88 1007.1
20260506111803 11 86 1.6 4.8 0.00 1.09 0.20 89 1007.2
20260506110903 11 80 0.0 3.2 0.00 1.09 0.20 90 1007.2
20260506110003 11 63 1.6 4.8 0.00 1.09 0.20 90 1007.0
20260506105403 11 37 3.2 6.4 0.00 1.09 0.20 89 1006.9
20260506104503 11 302 1.6 6.4 0.00 1.09 0.20 88 1007.0
20260506103603 11 287 1.6 9.7 0.00 1.09 0.20 88 1006.9
20260506102917 12 14 1.6 9.7 0.00 1.09 0.20 90 1006.9
20260506102016 11 57 3.2 14.5 0.00 1.09 0.20 91 1006.8
20260506100903 11 70 3.2 6.4 0.00 1.09 0.20 92 1006.7
20260506100003 11 331 1.6 6.4 0.00 1.09 0.20 92 1006.8
20260506095403 11 248 1.6 12.9 0.00 1.09 0.20 92 1006.8
20260506094503 11 235 3.2 8.0 0.00 1.09 0.20 92 1006.7
20260506093603 11 261 3.2 11.3 0.00 1.09 0.20 92 1006.6
20260506092703 11 277 1.6 8.0 0.00 1.09 0.20 92 1006.5
20260506091803 11 253 3.2 16.1 0.00 1.09 0.20 91 1006.4
20260506090903 11 217 3.2 11.3 0.00 1.09 0.20 91 1006.3
20260506090003 11 254 1.6 6.4 0.00 1.09 0.20 91 1006.1
20260506085403 12 274 3.2 11.3 0.00 1.09 0.20 93 1006.1
20260506084503 11 249 1.6 4.8 0.00 1.09 0.20 94 1006.0
20260506083603 11 308 1.6 4.8 0.00 1.09 0.20 94 1005.9
20260506082703 11 60 1.6 4.8 0.00 1.09 0.20 95 1005.9
20260506081803 11 242 1.6 8.0 0.00 1.09 0.20 95 1005.9
20260506080903 11 234 1.6 8.0 0.00 1.09 0.20 95 1005.8
20260506072703 11 249 1.6 6.4 0.00 1.09 0.20 96 1005.6
20260506071804 11 241 1.6 6.4 0.03 1.09 0.20 97 1005.6
20260506070903 11 238 3.2 9.7 0.03 1.09 0.20 96 1005.6
20260506062019 10 75 1.6 4.8 0.00 1.07 0.18 97 1005.3
20260506060903 10 270 1.6 4.8 0.00 1.07 0.18 96 1005.2
20260506050903 11 214 0.0 4.8 0.00 1.07 0.18 97 1005.0
20260506044503 11 0 0.0 0.0 0.00 1.07 0.18 97 1004.9
20260506043603 11 266 1.6 4.8 0.00 1.07 0.18 97 1004.9
20260506042703 11 269 3.2 6.4 0.03 1.07 0.18 97 1004.9
20260506042018 11 272 3.2 11.3 0.03 1.07 0.18 97 1005.0
20260506040003 11 205 0.0 1.6 0.03 1.07 0.18 98 1005.0
20260506035616 11 164 0.0 4.8 0.03 1.07 0.18 98 1004.9
20260506034717 11 300 0.0 3.2 0.03 1.07 0.18 98 1005.0
20260506033603 11 0 0.0 1.6 0.03 1.07 0.18 98 1005.1
20260506032703 11 0 0.0 0.0 0.00 1.04 0.15 98 1005.1
20260506031803 11 282 0.0 4.8 0.00 1.04 0.15 98 1005.1
20260506030903 11 205 0.0 3.2 0.00 1.04 0.15 98 1005.0
20260506025403 11 204 0.0 4.8 0.00 1.04 0.15 98 1005.2
20260506024503 11 319 0.0 4.8 0.00 1.04 0.15 98 1005.1
20260506023603 11 312 0.0 4.8 0.00 1.04 0.15 98 1005.2
20260506021803 11 202 0.0 3.2 0.05 1.04 0.15 98 1005.2
20260506020904 11 210 0.0 1.6 0.05 1.04 0.15 98 1005.2
20260506020003 11 201 0.0 6.4 0.05 1.04 0.15 98 1005.2
20260506015403 11 190 0.0 3.2 0.05 1.04 0.15 98 1005.3
20260506014503 12 159 0.0 1.6 0.05 1.04 0.15 98 1005.4
20260506013603 12 159 0.0 6.4 0.05 1.04 0.15 98 1005.6
20260506012703 12 234 0.0 3.2 0.05 1.02 0.15 98 1005.6
20260506011803 12 0 0.0 0.0 0.05 0.99 0.13 98 1005.7
20260506010903 12 0 0.0 0.0 0.05 0.99 0.13 98 1005.7
20260506010003 11 0 0.0 0.0 0.05 0.99 0.10 98 1005.7
20260506005619 11 0 0.0 0.0 0.05 0.99 0.10 98 1005.7
20260506004504 11 0 0.0 0.0 0.05 0.99 0.10 98 1005.7
20260506003603 11 0 0.0 0.0 0.05 0.99 0.10 98 1005.8
20260506002703 11 0 0.0 0.0 0.05 0.99 0.10 98 1005.9
20260506002016 11 234 0.0 1.6 0.00 0.94 0.05 98 1005.9
20260506000903 11 0 0.0 0.0 0.00 0.94 0.05 98 1006.1
20260506000003 11 234 0.0 1.6 0.00 0.94 0.05 98 1006.1
20260505235619 11 234 0.0 1.6 0.00 0.94 0.05 98 1006.1
20260505234503 11 234 0.0 1.6 0.00 0.94 0.05 98 1006.3
20260505233603 11 0 0.0 0.0 0.00 0.94 0.05 98 1006.4
20260505232703 11 0 0.0 0.0 0.03 0.94 0.05 98 1006.3
20260505231803 11 0 0.0 0.0 0.03 0.94 0.05 98 1006.5
20260505230903 11 0 0.0 0.0 0.03 0.94 0.05 98 1006.5
20260505230003 11 0 0.0 0.0 0.05 0.94 0.05 98 1006.5
20260505225618 11 0 0.0 0.0 0.08 0.94 0.05 97 1006.5
20260505224503 11 0 0.0 0.0 0.08 0.94 0.05 97 1006.8
20260505223817 11 0 0.0 0.0 0.08 0.94 0.05 97 1006.7
20260505222703 11 0 0.0 0.0 0.08 0.91 0.05 97 1006.8
20260505221803 11 0 0.0 0.0 0.08 0.91 0.05 97 1006.8
20260505220903 11 0 0.0 0.0 0.10 0.91 0.05 97 1006.8
20260505220004 12 0 0.0 0.0 0.05 0.89 0.00 97 1006.9
20260505215403 12 0 0.0 0.0 0.05 0.86 0.86 97 1007.0
20260505214503 12 0 0.0 0.0 0.05 0.86 0.86 97 1007.0
20260505213816 12 0 0.0 0.0 0.08 0.86 0.86 97 1007.0
20260505212703 12 0 0.0 0.0 0.05 0.84 0.84 97 1007.1
20260505211803 12 0 0.0 0.0 0.05 0.84 0.84 97 1007.1
20260505210904 12 0 0.0 0.0 0.05 0.81 0.81 97 1007.3
20260505210003 12 0 0.0 0.0 0.05 0.81 0.81 97 1007.3
20260505205403 12 234 0.0 1.6 0.05 0.81 0.81 97 1007.3
20260505204717 12 234 0.0 1.6 0.05 0.79 0.79 97 1007.3
20260505203603 12 0 0.0 0.0 0.05 0.79 0.79 97 1007.5
20260505202919 12 0 0.0 0.0 0.05 0.79 0.79 97 1007.3
20260505201803 12 0 0.0 0.0 0.05 0.79 0.79 97 1007.4
20260505201118 12 234 0.0 1.6 0.05 0.76 0.76 97 1007.3
20260505200003 12 0 0.0 0.0 0.05 0.76 0.76 97 1007.3
20260505195617 12 0 0.0 0.0 0.05 0.76 0.76 97 1007.3
20260505194503 12 0 0.0 0.0 0.05 0.76 0.76 97 1007.2
20260505193603 12 0 0.0 0.0 0.05 0.74 0.74 97 1007.1
20260505192703 12 0 0.0 0.0 0.05 0.74 0.74 97 1007.0
20260505191803 12 0 0.0 0.0 0.03 0.71 0.71 96 1007.0
20260505190903 12 0 0.0 0.0 0.05 0.71 0.71 96 1007.0
20260505190003 12 0 0.0 0.0 0.05 0.71 0.71 96 1007.0
20260505185403 12 0 0.0 0.0 0.05 0.71 0.71 96 1007.0
20260505184503 12 0 0.0 0.0 0.03 0.71 0.71 96 1007.0
20260505183819 12 0 0.0 0.0 0.05 0.71 0.71 96 1007.1
20260505182703 12 0 0.0 0.0 0.05 0.71 0.71 96 1007.1
20260505181803 12 0 0.0 0.0 0.08 0.71 0.71 96 1007.0
20260505180903 13 0 0.0 0.0 0.08 0.69 0.69 96 1007.2
20260505180003 13 0 0.0 0.0 0.10 0.69 0.69 96 1007.1
20260505175403 13 0 0.0 0.0 0.10 0.69 0.69 96 1007.1
20260505174503 13 0 0.0 0.0 0.10 0.69 0.69 96 1007.1
20260505173603 13 0 0.0 0.0 0.10 0.66 0.66 96 1007.2
20260505172703 13 0 0.0 0.0 0.13 0.66 0.66 95 1007.2
20260505172018 13 0 0.0 0.0 0.08 0.61 0.61 95 1007.1
20260505170903 13 0 0.0 0.0 0.05 0.61 0.61 95 1007.2
20260505170003 13 234 0.0 3.2 0.05 0.61 0.58 95 1007.3
20260505165403 13 234 0.0 3.2 0.05 0.61 0.58 95 1007.4
20260505164504 13 234 0.0 3.2 0.05 0.61 0.58 95 1007.4
20260505163603 13 234 0.0 3.2 0.03 0.61 0.56 94 1007.4
20260505162703 13 0 0.0 0.0 0.00 0.61 0.53 94 1007.5
20260505161803 13 0 0.0 0.0 0.03 0.61 0.53 93 1007.5
20260505160903 13 0 0.0 0.0 0.03 0.61 0.53 94 1007.5
20260505152704 13 229 0.0 1.6 0.05 0.61 0.53 94 1007.8
20260505151803 13 229 0.0 3.2 0.05 0.58 0.51 94 1007.8
20260505150903 13 229 0.0 3.2 0.08 0.58 0.51 93 1007.9
20260505140219 13 278 1.6 11.3 0.20 0.48 0.43 94 1008.0
20260505124718 15 243 0.0 1.6 0.15 0.25 0.15 87 1008.2
20260505122703 16 0 0.0 0.0 0.00 0.10 0.00 82 1008.0